{"data":{"norad_id":59443,"intl_designator":"2024-066B","name":"HAWK-8A","alt_names":[],"object_type":"PAYLOAD","status":"ACTIVE","operator":null,"country":"US","launch_date":"2024-04-07","launch_site_code":"AFETR","launch_vehicle":null,"mission":null,"orbit_class":"UNKNOWN","rcs_meters":null,"size_class":null,"mass_kg":null,"dimensions":null,"purposes":[],"wikipedia_slug":null,"has_3d_model":false,"image_url":null,"decayed_at":null,"tle_current":{"epoch":"2026-09-21T23:49:54.911424Z","epoch_age_seconds":134561,"freshness":"FRESH","line1":"1 59443U 24066B   26264.99299666  .00000682  00000+0  73458-4 0  9995","line2":"2 59443  45.6026 136.0495 0003161 217.6635 142.4025 14.99428654134366","mean_motion":14.99428654,"eccentricity":0.0003161,"inclination_deg":45.6026,"raan_deg":136.0495,"arg_perigee_deg":217.6635,"mean_anomaly_deg":142.4025,"bstar":7.3458e-5,"rev_number":13436,"period_min":96.036580077254,"perigee_km":566.46458606447,"apogee_km":570.85635142421,"semimajor_km":6946.7974687443,"source":"CELESTRAK","updated_at":"2026-09-23T09:00:19.374154Z"}}}